Regional Weather Roundup
Issued by NWS Upton, NY

Current Version | Previous Version | Text Only | Print | Product List | Glossary On
Versions: 1 2 3 4 5 6 7 8 9 10 11 12 13 14 15 16 17 18 19 20 21 22 23 24 25 26 27
000 ASUS41 KOKX 230609 RWROKX REGIONAL WEATHER ROUNDUP NATIONAL WEATHER SERVICE NEW YORK NY 200 AM EDT TUE MAY 23 2017 NOTE: "FAIR" INDICATES FEW OR NO CLOUDS BELOW 12,000 FEET WITH NO SIGNIFICANT WEATHER AND/OR OBSTRUCTIONS TO VISIBILITY. NYZ071-072-176-178-NJZ106-104-230700- NEW YORK CITY METRO AREA CITY SKY/WX TMP DP RH WIND PRES REMARKS Central Park CLOUDY 59 57 93 VRB3 29.97F Wall St Helipt CLOUDY 61 57 87 CALM 29.96F Bronx Bot Gard N/A 59 55 88 CALM 29.95F LaGuardia APRT CLOUDY 60 57 89 NW14 29.94F Kennedy INTL CLOUDY 62 60 93 NW8 29.95F Breezy Point N/A 57 N/A N/A NW7 N/A Newark/Liberty CLOUDY 59 57 93 NW9 29.95F Teterboro CLOUDY 60 57 89 N3 29.94F FOG $$ NYZ177-179-078>081-230700- LONG ISLAND NEW YORK CITY SKY/WX TMP DP RH WIND PRES REMARKS Jones Beach N/A 59 N/A N/A NW16 N/A Matinecock PT NOT AVBL Farmingdale CLOUDY 59 57 93 NW12G18 29.94S VSB 1/4 MacArthur/ISP CLOUDY 58 58 100 N9 29.93S FOG Shirley CLOUDY 58 58 100 NW10 29.93F Mt Sinai Harb N/A 55 N/A N/A NW6 N/A Westhampton CLOUDY 58 57 97 NW10 29.94S East Hampton CLOUDY 58 58 99 NW6 29.92S Montauk N/A 58 58 100 CALM 29.92F $$ NYZ052-065-067-230700- HUDSON VALLEY CITY SKY/WX TMP DP RH WIND PRES REMARKS White Plains MOCLDY 58 56 93 NW9 29.94F Larchmont Harb N/A 59 N/A N/A NW3 N/A Croton O-T Hud N/A 57 N/A N/A CALM N/A Newburgh CLOUDY 57 57 100 CALM 29.97F Montgomery CLOUDY 58 56 93 CALM 29.95F FOG Poughkeepsie CLOUDY 56 56 100 CALM 29.96S FOG Albany CLOUDY 56 47 71 NW7 29.99R $$ NJZ001-105-106-008-010-013-015-019>022-104-230700- NEW JERSEY CITY SKY/WX TMP DP RH WIND PRES REMARKS Newark/Liberty CLOUDY 59 57 93 NW9 29.95F Teterboro CLOUDY 60 57 89 N3 29.94F FOG Caldwell CLOUDY 61 56 83 CALM 29.95F Somerville CLOUDY 60 58 92 CALM 29.93F FOG Linden CLOUDY 60 57 91 NW5 29.95F Perth Amboy N/A 59 N/A N/A NW10 N/A Sussex CLOUDY 59 57 93 CALM 29.96F Andover N/A 56 55 97 CALM 29.95F Trenton CLOUDY 61 59 93 NW8 29.94F Millville CLOUDY 63 63 100 N3 29.92F Atlantic City CLOUDY 63 62 97 NW6 29.92F Wrightstown NOT AVBL Toms River CLOUDY 62 60 93 NW8 29.93F Belmar CLOUDY 60 59 96 NW13 29.94F $$ PAZ047>061-062-071-230700- EASTERN PENNSYLVANIA CITY SKY/WX TMP DP RH WIND PRES REMARKS Philadelphia PTCLDY 63 58 83 CALM 29.94F Allentown CLOUDY 57 54 89 CALM 29.95F Scranton CLOUDY 60 49 66 N7 30.00R $$ CTZ002-004>006-009-010-012-RIZ004-006-007-MAZ004-011-015-230700- SOUTHERN NEW ENGLAND IN CT CITY SKY/WX TMP DP RH WIND PRES REMARKS Bradley INTL CLOUDY 53 52 96 N6 29.95F FOG Hartford CLOUDY 54 53 97 NW6 29.95F Danbury CLOUDY 55 55 100 CALM 29.96F Wtrbury/Oxford N/A 54 50 87 NW5 29.96F Bridgeport CLOUDY 58 55 90 NW6 29.94F Meriden CLOUDY 54 53 97 NW5 29.94F New Haven CLOUDY 56 55 97 N7 29.94S Chester FOG 54 54 100 N9 29.93F VSB 1 Groton CLOUDY 57 56 96 N7 29.91F FOG Wilimantic CLOUDY 57 55 93 N3 29.93F IN RI CITY SKY/WX TMP DP RH WIND PRES REMARKS Providence CLOUDY 57 57 100 NW5 29.92F Block Island FOG 55 55 100 W7 29.92F VSB 1/4 Westerly FOG 58 57 97 CALM 29.91F VSB 1/4 IN MA CITY SKY/WX TMP DP RH WIND PRES REMARKS Boston LGT RAIN 53 52 96 N6 29.94F Worcester CLOUDY 50 48 93 NE3 29.92F FOG Westfield FOG 52 52 100 CALM 29.94F VSB 3/4 Provincetown LGT RAIN 55 55 100 SW5 29.93F FOG Nantucket HVY RAIN 55 53 93 SE20 29.92F FOG $$ ANZ330-335-338-340-345-350-353-355-230700- COASTAL MARINE OBSERVATIONS STATION/POSITION TIME SKY/WX TEMP WIND PRES VSBY WAVE AIR SEA DIR/SP/G HT/PER (UTC) (F) (DEG/KT/KT) (MB) (MI) (FT/S) NY HARB ENTRANCE 0450 58 56 300/ 8/ 12 1014.3 2/ 5 20 S FIRE ISLAND 0550 56 55 300/ 6/ 8 1013.4 3/ 5 GREAT SOUTH BAY 0430 60 64 330/ 6/ 8 N/A 23 SSW MONTAUK P 0450 55 54 1013.9 3/ 5 15 E BARNEGAT LI 0530 57 N/A 3/ 5 HUDSON CANYON 0450 61 54 240/ 6/ 8 1013.7 3/ 5 KINGS POINT 0524 59 57 360/ 9/ 10 1014.2 EXECUTION ROCKS 0545 59 N/A CENTRAL LI SOUND 0530 56 320/ 8/ 10 N/A 0 EASTERN LI SOUND NOT AVBL ROBBINS REEF 0524 61 300/ 9/ 10 1014.9 $$ >>>>>>>>>>>>>>>>>>>>>>>>>>>> KEY <<<<<<<<<<<<<<<<<<<<<<<<<<< > < > SKY/WX - Sky Condition/Present Weather < > TMP - Temperature in Fahrenheit < > DP - Dew Point in Fahrenheit < > RH - Relative Humidity in Percent < > WIND - Direction (from) and Speed in MPH < > PRES - Mean Sea Level Pressure (inches of Hg) < > WCI - Wind Chill Index < > VSB - VISIBILITY IN MILES < > HX - HEAT INDEX < > TC - TEMPERATURE IN CELSIUS < > VRB - VARIABLE WIND DIRECTION < > < >>>>>>>>>>>>>>>>>>>>>>>>>>>> KEY <<<<<<<<<<<<<<<<<<<<<<<<<<<

USA.gov is the U.S. government's official web portal to all federal, state and local government web resources and services.